This demonstration page uses our WeatherBlox Daily Observations layout. Learn more.

Left ArrowRight Arrow

Hourly Observations for May 5, 2015

Temp ( °F °C ) Dew Point ( °F °C ) Humidity (%) Winds ( mph kmh ) Pressure ( in mb ) Visibility ( mi km ) Precip ( " mm )
12:51 am 00:51 Clear 58 14.4 48 8.9 70 70 NNW 7 11 29.81 1010 10 16 0.00 0.03
1:51 am 01:51 Mostly Clear 56 13.3 50 10 81 81 S 6 9 29.83 1010 10 16 0.00 0.00
2:51 am 02:51 Mostly Cloudy 54 12.2 50 10 87 87 NE 7 11 29.81 1010 10 16 0.00 0.00
3:51 am 03:51 Mostly Cloudy 53 11.7 50 10 89 89 Calm 29.83 1010 10 16 0.00 0.00
4:51 am 04:51 Partly Cloudy 52 11.1 49 9.4 89 89 Calm 29.84 1010 10 16 0.00 0.00
5:51 am 05:51 Mostly Sunny 51 10.6 48 8.9 89 89 Calm 29.85 1011 10 16 0.00 0.00
6:51 am 06:51 Sunny 56 13.3 50 10 81 81 SSE 6 9 29.86 1011 10 16 0.00 0.00
7:51 am 07:51 Mostly Sunny 59 15 50 10 72 72 S 3 6 29.87 1012 10 16 0.00 0.00
8:51 am 08:51 Cloudy 65 18.3 47 8.3 52 52 Calm 29.87 1011 10 16 0.00 0.00
9:51 am 09:51 Cloudy 67 19.4 45 7.2 45 45 undefined N/A 29.87 1011 10 16 0.00 0.00
10:51 am 10:51 Mostly Sunny 71 21.7 45 7.2 39 39 W 9 15 29.84 1011 10 16 0.00 0.00
11:51 am 11:51 Mostly Sunny 74 23.3 44 6.7 34 34 VRB 7 11 29.83 1010 10 16 0.00 0.00
12:51 pm 12:51 Sunny 77 25 42 5.6 29 29 WNW 14 22 29.79 1009 10 16 0.00 0.00
1:51 pm 13:51 Mostly Cloudy 73 22.8 43 6.1 34 34 W 12 19 29.80 1009 10 16 0.00 0.00
2:51 pm 14:51 Mostly Cloudy 73 22.8 44 6.7 35 35 NW 10 17 29.78 1009 10 16 0.00 0.00
3:51 pm 15:51 Mostly Cloudy 74 23.3 44 6.7 34 34 WNW 9 15 29.76 1008 10 16 0.00 0.00
4:51 pm 16:51 Partly Cloudy 76 24.4 43 6.1 31 31 NW 16 26 29.76 1008 10 16 0.00 0.00
5:51 pm 17:51 Sunny 74 23.3 43 6.1 33 33 NW 14 22 29.76 1008 10 16 0.00 0.00
6:51 pm 18:51 Sunny 72 22.2 43 6.1 35 35 NW 15 24 29.77 1008 10 16 0.00 0.00
7:51 pm 19:51 Clear 68 20 44 6.7 42 42 NNW 8 13 29.79 1009 10 16 0.00 0.00
8:51 pm 20:51 Clear 64 17.8 43 6.1 46 46 N 5 7 29.80 1009 10 16 0.00 0.00
9:51 pm 21:51 Clear 63 17.2 43 6.1 48 48 WSW 6 9 29.82 1010 10 16 0.00 0.00
10:51 pm 22:51 Clear 62 16.7 45 7.2 54 54 WNW 9 15 29.80 1009 10 16 0.00 0.00
11:51 pm 23:51 Clear 60 15.6 45 7.2 58 58 E 5 7 29.80 1009 10 16 0.00 0.00

Powered by AerisWeather